x

Smith Island, Wa (sisw1) Weather Station

3:00 - Thu 8th Dec 2016 All times are PST. -8 hours from GMT.

  • Wind
    22mph, 24mph gusts
  • Aire Temp 37°f
  • Sea Pressure 1015.5mb
  • Smith Island, Wa
  • Smith Island, Wa

More Historic Weather Station data

Upgrade to MSW Pro to gain access to the past 30 days of data for over 8000 Wavebouys and Weather Stations around the globe.

Join Pro

Comparision Forecast

View Surf forecast
   
jue 12/08 3:00 22 24 mph 1015.5mb 37f
2:00 23 28 mph 1016mb 37f
1:00 17 22 mph 1017.5mb 36f
12:00 22 25 mph 1018.1mb 35f
11:00 20 22 mph 1019.4mb 35f
10:00 22 25 mph 1020mb 35f
9:00 24 26 mph 1020.5mb 33f
8:00 20 25 mph 1021.1mb 33f
7:00 24 28 mph 1021.4mb 33f
6:00 24 28 mph 1022.4mb 32f
5:00 18 22 mph 1023mb 32f
4:00 17 21 mph 1024mb 31f
3:00 21 24 mph 1024.5mb 32f
2:00 21 25 mph 1025.2mb 32f
1:00 21 23 mph 1026mb 31f
12:00 23 25 mph 1026.4mb 32f
mié 12/07 11:00 18 21 mph 1027.1mb 32f
10:00 15 17 mph 1027.7mb 32f
9:00 21 23 mph 1027.8mb 32f
8:00 16 20 mph 1028.1mb 33f
7:00 18 21 mph 1028.7mb 34f
6:00 15 17 mph 1028.8mb 34f
5:00 16 18 mph 1029.4mb 34f
4:00 14 18 mph 1029.9mb 34f
3:00 11 14 mph 1030.3mb 35f
2:00 10 14 mph 1030.6mb 34f
1:00 10 11 mph 1031mb 34f
12:00 10 13 mph 1031.3mb 34f
11:00 17 21 mph 1031.3mb 33f
10:00 15 18 mph 1031.6mb 32f
9:00 16 18 mph 1031.4mb 31f
8:00 15 16 mph 1031.2mb 30f
7:00 8 10 mph 1031.2mb 30f
6:00 10 14 mph 1031.1mb 30f
5:00 10 14 mph 1031mb 30f
4:00 20 23 mph 1030.6mb 31f
3:00 28 30 mph 1030mb 31f
2:00 29 31 mph 1029.7mb 31f
1:00 25 28 mph 1029.5mb 31f
12:00 23 26 mph 1029.1mb 32f
mar 12/06 11:00 26 29 mph 1028.5mb 33f
10:00 24 26 mph 1027.8mb 34f
9:00 22 23 mph 1027.2mb 34f
8:00 18 21 mph 1026.6mb 35f
7:00 20 21 mph 1026.3mb 35f
6:00 20 23 mph 1026mb 36f
4:00 17 20 mph 1025mb 36f
3:00 21 24 mph 1024.2mb 37f
2:00 17 20 mph 1023.5mb 37f
1:00 18 21 mph 1023mb 37f
12:00 14 16 mph 1022.7mb 37f
11:00 15 17 mph 1022.4mb 37f
10:00 13 16 mph 1021.9mb 37f
9:00 20 22 mph 1021mb 36f
8:00 20 23 mph 1020.3mb 36f
7:00 18 21 mph 1019.6mb 37f
6:00 20 23 mph 1019.2mb 37f
5:00 18 22 mph 1018.6mb 37f
4:00 11 16 mph 1018.1mb 37f
3:00 9 13 mph 1017.9mb 37f
2:00 10 13 mph 1017.2mb 37f
1:00 11 13 mph 1017.1mb 38f
12:00 11 14 mph 1017mb 38f
lun 12/05 11:00 13 14 mph 1016.9mb 38f
10:00 13 14 mph 1016.8mb 38f
9:00 14 16 mph 1016.5mb 38f
8:00 11 15 mph 1016.3mb 38f
7:00 13 15 mph 1016.4mb 37f
6:00 9 11 mph 1016.4mb 38f
5:00 10 14 mph 1016.2mb 40f
4:00 14 16 mph 1016mb 40f
3:00 16 20 mph 1015.9mb 41f
2:00 14 16 mph 1016.3mb 41f
1:00 17 18 mph 1016.6mb 42f
12:00 18 21 mph 1016.7mb 41f
11:00 22 24 mph 1016.9mb 40f
10:00 21 23 mph 1016.8mb 40f
9:00 17 20 mph 1017.1mb 38f
8:00 22 24 mph 1016.9mb 39f
7:00 25 29 mph 1017.1mb 39f
6:00 21 22 mph 1017mb 39f
5:00 21 23 mph 1017.5mb 38f
4:00 21 24 mph 1018.3mb 39f
3:00 21 23 mph 1018.8mb 39f
2:00 21 22 mph 1019.3mb 39f
1:00 15 17 mph 1019.3mb 42f